Zurück zum Katalog

STARLINK-4077

AktivKommunikationVLEO
NORAD 53154·PAYLOAD·🇺🇸 United States

Gestartet Jul 17, 2022 von Cape Canaveral Space Force Station

Loading…

Nächste Überflüge (nächste 24 Stunden)

TLE

AktuellSource: CelesTrak SupGP

Epoche: Sep 14, 2026, 20:39 UTC

1 53154C 22083Y   26257.86090278  .00032271  00000+0  92328-3 0  2573
2 53154  53.1601  28.2838 0001257  75.4190 162.8373 15.35383057    19

Verfolge STARLINK-4077 in Echtzeit mit AllMySat

Download on the App Store